Regional Weather Roundup
Issued by NWS Bismarck, ND

Home | Current Version | Previous Version | Text Only | Print | Product List | Glossary On
Versions: 1 2 3 4 5 6 7 8 9 10 11 12 13 14 15 16 17 18 19 20 21 22 23 24 25 26 27 28 29 30 31 32 33 34 35 36 37 38 39 40 41 42 43 44 45 46 47 48 49 50
000
ASUS43 KBIS 191701
RWRBIS

NWR BROADCAST TEXT
NATIONAL WEATHER SERVICE BISMARCK ND
1200 PM CDT SUN APR 19 2015

NOTE: "FAIR" INDICATES FEW OR NO CLOUDS BELOW 12,000 FEET WITH NO
SIGNIFICANT WEATHER AND/OR OBSTRUCTIONS TO VISIBILITY.


CITY           SKY/WX    TMP DP  RH WIND       PRES   REMARKS
WILLISTON      CLOUDY    45  32  60 NW24G43   30.03S
MINOT          LGT RAIN  42  37  82 NW20G33   29.88R
MINOT AFB      LGT RAIN  41  41  99 N22       29.87R
BISMARCK       CLOUDY    47  36  65 NW28G38   29.90S
DICKINSON      CLOUDY    43  33  68 NW28G36   29.97S
GARRISON         N/A     45  37  73 NW29G37   29.89S
HETTINGER ARPT CLOUDY    42  31  64 NW29G39   30.00S
JAMESTOWN      CLOUDY    47  37  68 NW25G36   29.76S
CARRINGTON     PTSUNNY   45  45 100 NW32G38   29.79S
HAZEN          PTSUNNY   45  34  65 NW30G37   29.93S
OAKES            N/A     50  39  66 NW24G31   29.77S
RUGBY            N/A    N/A N/A N/A MISG        N/A
STANLEY        MIX PCPN  41  39  93 N22G32    29.95R
$$

CITY           SKY/WX    TMP DP  RH WIND       PRES   REMARKS
GRAND FORKS    LGT RAIN  46  43  89 NW17G28   29.69F
GRAND FORKS AF LGT RAIN  45  41  87 NW17G24   29.70S
DEVILS LAKE    CLOUDY    43  36  75 NW24      29.77R
FARGO          CLOUDY    47  40  76 NW25G33   29.71R
CANDO          LGT RAIN  39  37  93 N18G29    29.80R
CAVALIER       LGT RAIN  41  39  93 N24G30    29.72R
GRAFTON        CLOUDY    45  45 100 NW17G24   29.71S FOG
GWINNER        CLOUDY    48  39  71 NW21G26   29.78S
LANGDON        RAIN      37  36  93 NW21G30   29.75R
ROLLA          LGT RAIN  39  39 100 NW26G33   29.80S
WALHALLA       LGT RAIN  41  41 100 NW17G26   29.74R
$$

CITY           SKY/WX    TMP DP  RH WIND       PRES   REMARKS
ABERDEEN       PTSUNNY   52  34  50 NW25G32   29.83S
MOBRIDGE       PTSUNNY   49  36  61 NW29G37   29.88S
BUFFALO          N/A     48  25  40 NW41G53   29.94S
RAPID CITY     SUNNY     48  25  40 NW39G49   30.03F
GLASGOW        MOSUNNY   48  25  40 NW28G33   30.16S
SIDNEY         CLOUDY    45  28  53 NW20G30   30.07S
WOLF POINT     CLOUDY    46  28  49 N29       30.14S
GLENDIVE       CLOUDY    43  27  52 NW25G31   30.10S
MILES CITY     SUNNY     49  24  37 NW28G37   30.15R
BAKER          CLOUDY    40  28  62 NW22G33   30.09S
$$

CITY           SKY/WX    TMP DP  RH WIND       PRES   REMARKS
BILLINGS       MOSUNNY   48  18  30 N14       30.22F
GREAT FALLS    CLOUDY    46  23  40 CALM      30.22F
$$



USA.gov is the U.S. government's official web portal to all federal, state and local government web resources and services.